State College, PA

9:51 PM EDT on July 25, 2017 (GMT -0400)
University Park

Weather History for KUNV - February, 2013

Change the Weather History Date:

Friday, February 8, 2013

  Actual Average Record
Temperature  
Mean Temperature 27 °F -  
Max Temperature 33 °F 31 °F 55 °F (1928)
Min Temperature 21 °F 15 °F -6 °F (1936)
Degree Days  
Heating Degree Days 38    
Moisture  
Dew Point 24 °F    
Average Humidity 79    
Maximum Humidity 100    
Minimum Humidity 64    
Precipitation  
Precipitation 0.00 in - - ()
Sea Level Pressure  
Sea Level Pressure 29.95 in    
Wind  
Wind Speed 6 mph (South)    
Max Wind Speed 23 mph    
Max Gust Speed 31 mph    
Visibility 8 miles    
Events Snow    
Averages and records for this station are not official NWS values.
T = Trace of Precipitation, MM = Missing Value Source: NWS Daily Summary

Daily Weather History Graph

Daily Weather History Graph

Search for Another Location

Airport or City:

Trip Planner

Search our weather history database for the weather conditions in past years. The results will help you decide how hot, cold, wet, or windy it might be!

Date:

Astronomy

Feb. 08, 2013 Rise Set
Actual Time 7:13 AM EST 5:37 PM EST
Civil Twilight 6:45 AM EST 6:06 PM EST
Nautical Twilight 6:12 AM EST 6:38 PM EST
Astronomical Twilight 5:41 AM EST 7:10 PM EST
Moon 5:41 AM EST (2/8) 4:08 PM EST (2/8)
Length of Visible Light 11h 20m
Length of Day
10h 23m
Waning Crescent, 3% of the Moon is Illuminated
Feb 8
Waning Crescent
Feb 10
New
Feb 17
First Quarter
Feb 25
Full
Mar 4
Last Quarter

Hourly Weather History & Observations

Time (EST) Temp. Windchill Dew Point Humidity Pressure Visibility Wind Dir Wind Speed Gust Speed Precip Events Conditions
12:15 AM 31.6 °F 28.3 °F 21.0 °F 65% 30.12 in 10.0 mi SSE 3.5 mph - N/A   Overcast
12:35 AM 31.8 °F 25.4 °F 21.9 °F 67% 30.11 in 10.0 mi SSE 6.9 mph - N/A   Overcast
12:55 AM 31.8 °F 27.3 °F 22.5 °F 68% 30.10 in 10.0 mi SSE 4.6 mph - N/A   Overcast
1:15 AM 31.8 °F 27.3 °F 23.0 °F 70% 30.09 in 10.0 mi SE 4.6 mph - N/A   Overcast
1:35 AM 31.6 °F 27.0 °F 23.0 °F 70% 30.08 in 10.0 mi SE 4.6 mph - N/A   Overcast
1:55 AM 31.1 °F 25.4 °F 22.8 °F 71% 30.08 in 10.0 mi SE 5.8 mph - N/A   Overcast
2:15 AM 30.9 °F 26.2 °F 22.5 °F 71% 30.07 in 10.0 mi ESE 4.6 mph - N/A   Overcast
2:35 AM 30.7 °F 27.3 °F 22.8 °F 72% 30.07 in 10.0 mi East 3.5 mph - N/A   Overcast
2:55 AM 31.1 °F 26.4 °F 24.6 °F 77% 30.05 in 10.0 mi SE 4.6 mph - N/A   Overcast
3:15 AM 30.9 °F 27.5 °F 24.6 °F 77% 30.04 in 10.0 mi ESE 3.5 mph - N/A   Overcast
3:35 AM 31.1 °F - 25.5 °F 80% 30.03 in 10.0 mi Calm Calm - N/A   Overcast
3:55 AM 31.1 °F 27.7 °F 25.7 °F 80% 30.03 in 10.0 mi SSE 3.5 mph - N/A   Overcast
4:15 AM 30.9 °F 27.5 °F 25.7 °F 81% 30.02 in 10.0 mi East 3.5 mph - N/A   Overcast
4:35 AM 30.7 °F - 25.5 °F 81% 30.02 in 10.0 mi Calm Calm - N/A   Overcast
4:55 AM 31.1 °F - 25.7 °F 80% 30.01 in 10.0 mi Calm Calm - N/A   Overcast
5:15 AM 31.6 °F 26.0 °F 26.1 °F 80% 30.00 in 10.0 mi SSE 5.8 mph - N/A   Overcast
5:53 AM 32.0 °F 25.6 °F 26.6 °F 80% 29.99 in 7.0 mi SSE 6.9 mph - N/A   Overcast
6:53 AM 32.0 °F 26.4 °F 26.6 °F 80% 29.96 in 7.0 mi South 5.8 mph - N/A   Overcast
7:53 AM 32.0 °F 25.6 °F 28.4 °F 87% 29.94 in 5.0 mi SSE 6.9 mph - N/A   Haze
8:53 AM 32.0 °F 26.4 °F 30.2 °F 93% 29.92 in 5.0 mi SSE 5.8 mph - N/A   Haze
10:10 AM 32.0 °F - 30.2 °F 93% 29.89 in 1.0 mi Calm Calm - N/A Snow Light Snow
10:53 AM 32.0 °F - 32.0 °F 100% 29.87 in 2.0 mi Calm Calm - N/A Snow Light Snow
11:20 AM 32.0 °F 27.5 °F 32.0 °F 100% 29.84 in 3.0 mi SSE 4.6 mph - N/A   Overcast
11:53 AM 33.8 °F 27.7 °F 30.2 °F 87% 29.82 in 6.0 mi SE 6.9 mph - N/A   Overcast
12:53 PM 33.8 °F - 30.2 °F 87% 29.80 in 7.0 mi Calm Calm - N/A   Overcast
1:53 PM 32.0 °F - 32.0 °F 100% 29.77 in 2.0 mi Calm Calm - N/A Snow Light Snow
2:53 PM 32.0 °F - 32.0 °F 100% 29.76 in 2.0 mi Calm Calm - N/A Snow Light Snow
4:53 PM 32.0 °F - 32.0 °F 100% 29.75 in 4.0 mi Calm Calm - N/A   Overcast
5:27 PM 33.8 °F 24.8 °F 30.2 °F 87% 29.76 in 5.0 mi West 12.7 mph 17.3 mph N/A   Overcast
6:53 PM 32.0 °F 19.5 °F 24.8 °F 75% 29.80 in 10.0 mi WNW 21.9 mph 31.1 mph N/A Snow Light Snow
7:53 PM 28.4 °F 14.4 °F 21.2 °F 74% 29.82 in 10.0 mi WNW 23.0 mph 27.6 mph N/A   Overcast
8:53 PM 26.6 °F 14.7 °F 17.6 °F 69% 29.87 in 7.0 mi WNW 15.0 mph 29.9 mph N/A Snow Light Snow
9:55 PM 24.6 °F 11.3 °F 14.9 °F 67% 29.92 in 10.0 mi WNW 17.3 mph 27.6 mph N/A   Overcast
10:15 PM 23.5 °F 8.3 °F 13.8 °F 66% 29.92 in 10.0 mi West 21.9 mph 29.9 mph N/A Snow Light Snow
10:35 PM 23.0 °F 10.1 °F 12.6 °F 64% 29.94 in 10.0 mi WNW 15.0 mph 26.5 mph N/A Snow Light Snow
10:55 PM 22.3 °F 10.8 °F 13.3 °F 68% 29.95 in 10.0 mi NW 11.5 mph 18.4 mph N/A Snow Light Snow
11:15 PM 21.7 °F 9.0 °F 12.2 °F 67% 29.95 in 7.0 mi WNW 13.8 mph 24.2 mph N/A Snow Light Snow
11:35 PM 21.2 °F 10.1 °F 12.0 °F 68% 29.96 in 10.0 mi West 10.4 mph 17.3 mph N/A Snow Light Snow
11:55 PM 21.0 °F 13.4 °F 10.6 °F 64% 29.97 in 10.0 mi West 5.8 mph - N/A   Overcast